TimeEDT,TemperatureF,Dew PointF,Humidity,Sea Level PressureIn,VisibilityMPH,Wind Direction,Wind SpeedMPH,Gust SpeedMPH,PrecipitationIn,Events,Conditions,WindDirDegrees,DateUTC
12:15 AM,36.9,36.0,97,29.99,10.0,NNW,4.6,-,N/A,,Overcast,330,2012-10-29 04:15:00
12:35 AM,37.4,36.1,95,29.98,10.0,NNW,6.9,-,N/A,,Overcast,330,2012-10-29 04:35:00
12:55 AM,37.4,36.5,97,29.98,10.0,NNW,6.9,-,N/A,,Overcast,340,2012-10-29 04:55:00
1:15 AM,37.4,36.1,95,29.98,10.0,NNW,6.9,-,N/A,,Overcast,340,2012-10-29 05:15:00
1:35 AM,37.4,36.5,97,29.97,10.0,NNW,10.4,-,N/A,,Overcast,330,2012-10-29 05:35:00
1:55 AM,37.6,36.5,96,29.97,7.0,NNW,4.6,-,N/A,,Overcast,330,2012-10-29 05:55:00
2:15 AM,37.8,36.7,96,29.97,10.0,NNW,8.1,-,N/A,,Overcast,330,2012-10-29 06:15:00
2:35 AM,37.8,36.5,95,29.96,10.0,NNW,8.1,-,N/A,,Overcast,340,2012-10-29 06:35:00
2:55 AM,37.8,36.5,95,29.96,10.0,NNW,6.9,16.1,N/A,,Overcast,340,2012-10-29 06:55:00
3:15 AM,37.8,36.5,95,29.96,10.0,NW,6.9,-,N/A,,Overcast,320,2012-10-29 07:15:00
3:35 AM,37.8,36.5,95,29.95,10.0,NNW,6.9,-,N/A,,Overcast,330,2012-10-29 07:35:00
3:55 AM,37.6,36.3,95,29.95,10.0,NW,9.2,-,N/A,,Overcast,320,2012-10-29 07:55:00
4:15 AM,37.4,36.0,95,29.95,10.0,NNW,11.5,17.3,N/A,,Overcast,330,2012-10-29 08:15:00
4:35 AM,37.4,35.8,94,29.94,10.0,NNW,9.2,-,N/A,,Overcast,330,2012-10-29 08:35:00
4:55 AM,37.0,35.6,95,29.94,10.0,NNW,10.4,-,N/A,,Overcast,330,2012-10-29 08:55:00
5:15 AM,36.9,35.6,95,29.94,10.0,NW,11.5,16.1,N/A,,Overcast,320,2012-10-29 09:15:00
5:35 AM,36.9,35.6,95,29.94,10.0,NW,9.2,18.4,N/A,,Overcast,320,2012-10-29 09:35:00
5:55 AM,36.9,35.6,95,29.94,10.0,NW,9.2,17.3,N/A,,Overcast,320,2012-10-29 09:55:00
7:15 AM,36.5,35.6,97,29.94,7.0,NNW,8.1,-,N/A,,Overcast,330,2012-10-29 11:15:00
7:35 AM,36.7,35.6,96,29.94,7.0,NW,10.4,-,N/A,,Overcast,320,2012-10-29 11:35:00
7:55 AM,36.7,35.4,95,29.93,5.0,NNW,6.9,-,N/A,,Overcast,330,2012-10-29 11:55:00
8:15 AM,36.7,35.6,96,29.93,7.0,NW,10.4,16.1,N/A,,Overcast,320,2012-10-29 12:15:00
8:35 AM,36.7,35.6,96,29.93,7.0,NNW,9.2,16.1,N/A,,Overcast,330,2012-10-29 12:35:00
8:55 AM,36.9,35.6,95,29.93,7.0,NW,9.2,17.3,N/A,,Overcast,320,2012-10-29 12:55:00
9:15 AM,36.9,35.6,95,29.93,5.0,NW,10.4,-,N/A,,Overcast,320,2012-10-29 13:15:00
9:35 AM,36.9,35.6,95,29.93,7.0,NNW,9.2,-,N/A,,Overcast,330,2012-10-29 13:35:00
9:55 AM,36.7,35.4,95,29.92,7.0,NNW,11.5,16.1,N/A,,Overcast,330,2012-10-29 13:55:00
10:15 AM,36.9,35.6,95,29.92,7.0,NW,10.4,17.3,N/A,,Overcast,320,2012-10-29 14:15:00
10:35 AM,37.0,35.6,95,29.91,7.0,NNW,6.9,-,N/A,,Overcast,330,2012-10-29 14:35:00
10:55 AM,37.4,35.8,94,29.91,7.0,NNW,6.9,-,N/A,,Overcast,330,2012-10-29 14:55:00
11:15 AM,37.4,36.0,95,29.90,7.0,NNW,8.1,-,N/A,,Overcast,330,2012-10-29 15:15:00
11:35 AM,37.4,35.8,94,29.90,7.0,NNW,9.2,18.4,N/A,,Overcast,330,2012-10-29 15:35:00
11:55 AM,37.4,36.0,95,29.90,4.0,NW,9.2,17.3,N/A,,Overcast,320,2012-10-29 15:55:00
12:15 PM,37.6,36.1,95,29.90,4.0,NW,11.5,18.4,N/A,,Overcast,320,2012-10-29 16:15:00
12:35 PM,37.4,35.8,94,29.89,4.0,NW,6.9,23.0,N/A,,Overcast,320,2012-10-29 16:35:00
12:55 PM,37.4,36.0,95,29.88,5.0,NW,9.2,-,N/A,,Overcast,320,2012-10-29 16:55:00
1:15 PM,37.4,35.8,94,29.88,3.0,NW,8.1,17.3,N/A,,Overcast,320,2012-10-29 17:15:00
1:35 PM,37.4,36.1,95,29.87,3.0,NW,10.4,19.6,N/A,,Overcast,310,2012-10-29 17:35:00
1:55 PM,37.4,36.0,95,29.86,4.0,NW,6.9,-,N/A,,Overcast,310,2012-10-29 17:55:00
2:15 PM,37.4,36.0,95,29.85,5.0,NW,6.9,16.1,N/A,,Overcast,320,2012-10-29 18:15:00
2:35 PM,37.4,36.0,95,29.85,4.0,WNW,9.2,-,N/A,,Overcast,300,2012-10-29 18:35:00
2:55 PM,37.4,36.1,95,29.84,2.5,NW,9.2,-,N/A,,Overcast,310,2012-10-29 18:55:00
3:15 PM,37.0,36.1,97,29.83,3.0,WNW,9.2,-,N/A,,Overcast,300,2012-10-29 19:15:00
3:35 PM,36.9,36.0,97,29.83,3.0,NW,6.9,-,N/A,,Overcast,310,2012-10-29 19:35:00
3:55 PM,36.7,35.8,97,29.82,3.0,NW,10.4,18.4,N/A,,Overcast,310,2012-10-29 19:55:00
4:15 PM,36.7,35.8,97,29.82,3.0,WNW,6.9,-,N/A,,Overcast,300,2012-10-29 20:15:00
4:35 PM,36.5,35.6,97,29.81,3.0,NW,10.4,16.1,N/A,,Overcast,310,2012-10-29 20:35:00
4:55 PM,36.5,35.6,97,29.80,3.0,NW,10.4,17.3,N/A,,Overcast,310,2012-10-29 20:55:00
5:15 PM,36.5,35.4,96,29.79,4.0,NW,6.9,18.4,N/A,,Overcast,320,2012-10-29 21:15:00
5:55 PM,36.5,35.4,96,29.78,4.0,WNW,9.2,-,N/A,,Overcast,300,2012-10-29 21:55:00
6:15 PM,36.5,35.4,96,29.78,4.0,NW,8.1,18.4,N/A,,Overcast,310,2012-10-29 22:15:00
6:35 PM,36.5,35.4,96,29.77,4.0,NW,9.2,19.6,N/A,,Overcast,310,2012-10-29 22:35:00
6:55 PM,36.5,35.2,95,29.76,4.0,WNW,8.1,17.3,N/A,,Overcast,300,2012-10-29 22:55:00
7:15 PM,36.5,35.2,95,29.76,5.0,WNW,8.1,18.4,N/A,,Overcast,300,2012-10-29 23:15:00
7:55 PM,35.8,34.7,96,29.75,5.0,WNW,8.1,20.7,N/A,,Overcast,300,2012-10-29 23:55:00
8:15 PM,35.8,34.7,96,29.74,5.0,WNW,10.4,18.4,N/A,,Overcast,300,2012-10-30 00:15:00
8:35 PM,35.8,34.7,96,29.74,4.0,WNW,9.2,21.9,N/A,,Overcast,300,2012-10-30 00:35:00
11:35 PM,33.4,32.7,97,29.68,4.0,WNW,13.8,20.7,N/A,Snow,Light Snow,300,2012-10-30 03:35:00
11:55 PM,33.8,32.7,96,29.67,3.0,WNW,9.2,19.6,N/A,Snow,Light Snow,290,2012-10-30 03:55:00